Plymouth, MA

7:19 PM EST on December 08, 2019 (GMT -0500)
Plymouth Municipal

Weather History for KPYM - November, 2019

Change the Weather History Date:

Wednesday, November 13, 2019

  Actual Average Record
Temperature  
Mean Temperature 24 °F -  
Max Temperature 30 °F 51 °F 70 °F (1964)
Min Temperature 18 °F 33 °F 17 °F (1996)
Degree Days  
Heating Degree Days 41    
Moisture  
Dew Point 5 °F    
Average Humidity 46    
Maximum Humidity 62    
Minimum Humidity 33    
Precipitation  
Precipitation 0.00 in - - ()
Sea Level Pressure  
Sea Level Pressure 30.23 in    
Wind  
Wind Speed 12 mph (WNW)    
Max Wind Speed 20 mph    
Max Gust Speed 32 mph    
Visibility 10 miles    
Events      
Averages and records for this station are not official NWS values.
T = Trace of Precipitation, MM = Missing Value Source: NWS Daily Summary

Daily Weather History Graph

Daily Weather History Graph

Search for Another Location

Airport or City:

Astronomy

Nov. 13, 2019 Rise Set
Actual Time 6:29 AM EST 4:24 PM EST
Civil Twilight 6:00 AM EST 4:53 PM EST
Nautical Twilight 5:26 AM EST 5:27 PM EST
Astronomical Twilight 4:53 AM EST 6:00 PM EST
Moon 5:24 PM EST (11/13) 7:19 AM EST (11/13)
Length of Visible Light 10h 53m
Length of Day
9h 54m
Full, 99% of the Moon is Illuminated
Nov 13
Full
Nov 19
Last Quarter
Nov 26
New
Dec 4
First Quarter
Dec 12
Full

Hourly Weather History & Observations

Time (EST) Temp. Windchill Dew Point Humidity Pressure Visibility Wind Dir Wind Speed Gust Speed Precip Events Conditions
12:52 AM 23.0 °F 11.1 °F 5.0 °F 46% 30.03 in 10.0 mi WNW 12.7 mph - N/A   Clear
1:52 AM 21.0 °F 8.1 °F 5.0 °F 50% 30.03 in 10.0 mi WNW 13.8 mph 25.3 mph N/A   Clear
2:52 AM 21.0 °F 10.6 °F 5.0 °F 50% 30.05 in 10.0 mi West 9.2 mph - N/A   Clear
3:52 AM 19.9 °F 7.3 °F 5.0 °F 52% 30.05 in 10.0 mi WNW 12.7 mph 24.2 mph N/A   Clear
4:52 AM 19.0 °F 6.8 °F 5.0 °F 54% 30.08 in 10.0 mi West 11.5 mph - N/A   Clear
5:52 AM 19.0 °F 7.5 °F 3.0 °F 50% 30.10 in 10.0 mi WNW 10.4 mph - N/A   Clear
6:52 AM 18.0 °F 4.8 °F 1.9 °F 50% 30.12 in 10.0 mi WNW 12.7 mph 23.0 mph N/A   Clear
7:52 AM 19.9 °F 4.8 °F 1.9 °F 46% 30.15 in 10.0 mi WNW 18.4 mph 32.2 mph N/A   Clear
8:52 AM 21.9 °F 8.7 °F 3.0 °F 44% 30.17 in 10.0 mi WNW 15.0 mph 24.2 mph N/A   Clear
9:52 AM 24.1 °F 12.0 °F 3.0 °F 40% 30.19 in 10.0 mi NW 13.8 mph 27.6 mph N/A   Clear
10:52 AM 26.1 °F 12.3 °F 3.9 °F 39% 30.19 in 10.0 mi WNW 19.6 mph 25.3 mph N/A   Clear
11:52 AM 28.9 °F 16.5 °F 5.0 °F 36% 30.20 in 10.0 mi West 18.4 mph 23.0 mph N/A   Clear
12:52 PM 30.0 °F 20.5 °F 3.9 °F 33% 30.21 in 10.0 mi WNW 11.5 mph 24.2 mph N/A   Clear
1:52 PM 30.9 °F 19.4 °F 5.0 °F 33% 30.23 in 10.0 mi WNW 17.3 mph - N/A   Clear
2:52 PM 30.0 °F 18.3 °F 3.9 °F 33% 30.26 in 10.0 mi NNW 17.3 mph - N/A   Clear
3:52 PM 28.9 °F 18.6 °F 3.9 °F 35% 30.28 in 10.0 mi WNW 12.7 mph - N/A   Clear
4:52 PM 27.0 °F 18.7 °F 5.0 °F 39% 30.32 in 10.0 mi NW 8.1 mph - N/A   Clear
5:52 PM 26.1 °F 19.4 °F 3.9 °F 39% 30.34 in 10.0 mi NW 5.8 mph - N/A   Clear
6:52 PM 23.0 °F - 7.0 °F 50% 30.38 in 10.0 mi Calm Calm - N/A   Clear
7:52 PM 21.9 °F 17.2 °F 7.0 °F 53% 30.42 in 10.0 mi NW 3.5 mph - N/A   Clear
8:52 PM 21.0 °F 14.6 °F 8.1 °F 57% 30.43 in 10.0 mi WNW 4.6 mph - N/A   Clear
9:52 PM 21.0 °F 14.6 °F 8.1 °F 57% 30.45 in 10.0 mi NW 4.6 mph - N/A   Clear
10:52 PM 21.0 °F 13.4 °F 8.1 °F 57% 30.45 in 10.0 mi WNW 5.8 mph - N/A   Clear
11:52 PM 19.9 °F 13.4 °F 9.0 °F 62% 30.45 in 10.0 mi West 4.6 mph - N/A   Clear